User: anonymous   Login
Location: ???????
(55.4362°N, 38.1183°E)
Time: 02:07:10
(UTC+00:00)
Language:

Lacrosse 4 Rocket - Orbit

View from above orbital plane
View from above orbital plane
View from above satellite
View from above satellite

Ground track
Ground track

The orbit data is extracted from the following two-line orbital elements,

1 26474U 00047B   21259.47136965  .00000254  00000-0  32720-4 0  9993
2 26474  67.9920 260.2351 0051930  52.8415 307.7452 14.96218322147457
Epoch (UTC): 16 September 2021 11:18:46
Eccentricity: 0.0051930
inclination: 67.9920°
perigee height: 542 km
apogee height: 615 km
right ascension of ascending node: 260.2351°
argument of perigee: 52.8415°
revolutions per day: 14.96218322
mean anomaly at epoch: 307.7452°
orbit number at epoch: 14745

The dashed part of the orbit path shows where the satellite is in the earth's shadow,  

DLR